Meteopurmerend
purmerend
Purmerend - Baaienwijk



My webcam  My webcam


waarschuwing voor Onweer Meer informatie blitzortung!


Regen radar Meer informatie rain snow radar


Bezoek onze andere website:

CandyAppleRed WebdesignWebdesign Purmerend Candy Apple Red

MeteopurmerendBlog

Template documentation
and downloads



Onweer van: 26-07-2021 13:00 tot: 21:00 waarschuwing voor: Onweer niveau: Geel info button
Enkele onweersbuien, lokaal met hagel en veel neerslag in korte tijd.Kans op blikseminslag, hagel en veel neerslag in korte tijd.Verkeer en buitenactiviteiten kunnen hinder ondervinden.Mijd open water en open gebied, schuil niet onder bomen.Volg weerberichten en waarschuwingen.

15 daagse weersverwachting Arnhem (NL)

  • Overzicht
  • Per uur
  • 15 dagen
  • Extra
  • Vergelijk
  • Kaarten
  • Dagkaart
  • Meer »
  • Info
  • Statistieken
  • Directe link
    Temp 6h Neerslag Wind  
 05:52     21:35    Daglengte: 15:43 Vandaag
20:00
19°
1.3 mm
3
 05:53     21:33    Daglengte: 15:40 Morgen
02:00
16°
0.2 mm
3
08:00
16°
 
3
14:00
21°
 
4
20:00
18°
1.8 mm
3
 05:55     21:32    Daglengte: 15:37 Woensdag 28 Jul
02:00
16°
1.8 mm
3
08:00
16°
 
4
14:00
19°
4.3 mm
6
20:00
18°
10.9 mm
5
 05:56     21:30    Daglengte: 15:34 Donderdag 29 Jul
02:00
15°
12.0 mm
5
08:00
15°
8.8 mm
7
Locatie info
Region: Gelderland
Latitude: 51.9804°N
Longitude: 5.9033°E
16 masl
Postcode: 6811 JE
Temp/Neerslag /Baro Onweer/Dauwpunt
    Temp Baro 1h Neerslag Dauwpunt Wind UV Bewolking  
 05:52     21:35    Daglengte: 15:43 Vandaag
15:00
22°
1009.4 hPa
48%
14.9°
4
Windvlaag: 7 m/s
19%
16:00
22°
1009.4 hPa
80%
15.1°
4
Windvlaag: 6.9 m/s
23%
17:00
21°
1009.4 hPa 0.7 mm
82%
14.2°
4
Windvlaag: 5.6 m/s
50%
18:00
20°
1009.4 hPa 0.6 mm
82%
14.1°
4
Windvlaag: 5.8 m/s
52%
19:00
20°
1009.2 hPa
75%
14.6°
4
Windvlaag: 5.4 m/s
63%
20:00
19°
1009.2 hPa
68%
15.0°
3
Windvlaag: 5.7 m/s
53%
21:00
18°
1009.6 hPa 0.2 mm
79%
15.4°
3
Windvlaag: 6.1 m/s
70%
22:00
18°
1010.2 hPa
81%
16.2°
3
Windvlaag: 5.9 m/s
71%
23:00
17°
1010.4 hPa
63%
16.3°
3
Windvlaag: 4.5 m/s
26%
 05:53     21:33    Daglengte: 15:40 Morgen
00:00
17°
1010.5 hPa
18%
16.5°
3
Windvlaag: 5.2 m/s
62%
01:00
17°
1010.5 hPa
18%
16.3°
3
Windvlaag: 5.7 m/s
66%
02:00
16°
1010.8 hPa
14%
16.1°
3
Windvlaag: 5.4 m/s
62%
03:00
16°
1010.8 hPa
14%
15.4°
3
Windvlaag: 4.5 m/s
21%
04:00
16°
1010.8 hPa
14%
15.4°
3
Windvlaag: 4.5 m/s
65%
05:00
16°
1010.7 hPa
15%
15.4°
3
Windvlaag: 4.3 m/s
63%
06:00
16°
1010.5 hPa
14%
15.3°
3
Windvlaag: 5.2 m/s
61%
07:00
16°
1011.0 hPa
14%
15.7°
3
Windvlaag: 5 m/s
68%
08:00
16°
1011.0 hPa
14%
15.6°
3
Windvlaag: 5 m/s
82%
09:00
17°
1011.0 hPa
14%
15.7°
3
Windvlaag: 6 m/s
57%
10:00
18°
1011.1 hPa
14%
15.4°
4
Windvlaag: 5.7 m/s
49%
11:00
19°
1011.0 hPa
14%
15.6°
4
Windvlaag: 6.7 m/s
72%
12:00
20°
1010.9 hPa
14%
15.5°
4
Windvlaag: 7.4 m/s
79%
13:00
21°
1010.5 hPa
14%
16.0°
4
Windvlaag: 6.7 m/s
58%
14:00
21°
1010.1 hPa
19%
18.3°
4
Windvlaag: 6.6 m/s
54%
15:00
21°
1009.8 hPa
74%
18.5°
4
Windvlaag: 6.3 m/s
72%
16:00
21°
1009.9 hPa 0.8 mm
82%
17.4°
4
Windvlaag: 6.7 m/s
76%
17:00
21°
1009.7 hPa 1.0 mm
82%
15.6°
4
Windvlaag: 6.5 m/s
77% warningclass
18:00
19°
1009.6 hPa
82%
15.7°
4
Windvlaag: 7 m/s
56%
19:00
19°
1009.5 hPa
82%
16.6°
4
Windvlaag: 6.4 m/s
65%
20:00
18°
1009.4 hPa
82%
16.3°
3
Windvlaag: 6.3 m/s
86%
21:00
18°
1009.5 hPa 0.8 mm
82%
16.3°
3
Windvlaag: 6.1 m/s
69%
22:00
18°
1009.7 hPa 1.0 mm
81%
16.3°
3
Windvlaag: 6.5 m/s
60%
23:00
17°
1009.7 hPa
81%
15.7°
3
Windvlaag: 6.2 m/s
66%
 05:55     21:32    Daglengte: 15:37 Woensdag 28 Jul
00:00
17°
1009.6 hPa
22%
15.6°
3
Windvlaag: 6 m/s
53%
01:00
17°
1009.5 hPa
17%
15.5°
4
Windvlaag: 7.4 m/s
58%
02:00
16°
1009.2 hPa
22%
15.5°
3
Windvlaag: 7.6 m/s
64%
03:00
16°
1008.9 hPa
72%
15.2°
3
Windvlaag: 7.4 m/s
67%
04:00
16°
1008.6 hPa
79%
14.8°
3
Windvlaag: 7.5 m/s
67%
05:00
16°
1008.4 hPa
68%
14.7°
3
Windvlaag: 8.8 m/s
51%
06:00
15°
1008.4 hPa
61%
14.5°
3
Windvlaag: 8.5 m/s
64%
07:00
16°
1008.5 hPa
36%
14.3°
4
Windvlaag: 8.8 m/s
63%
08:00
16°
1008.5 hPa
54%
14.8°
4
Windvlaag: 9.7 m/s
25%
09:00
16°
1008.6 hPa
14%
14.6°
5
Windvlaag: 9.3 m/s
53%
10:00
16°
1008.6 hPa
81%
14.1°
5
Windvlaag: 9.7 m/s
54%
11:00
18°
1008.0 hPa 1.0 mm
100%
11.9°
6
Windvlaag: 10.4 m/s
74%
12:00
18°
1008.0 hPa 1.1 mm
100%
12.1°
6
Windvlaag: 10.6 m/s
55%
13:00
19°
1007.9 hPa 0.7 mm
100%
12.8°
6
Windvlaag: 10.4 m/s
65%
14:00
19°
1007.9 hPa 1.5 mm
100%
11.8°
6
Windvlaag: 9.7 m/s
60%
15:00
19°
1008.1 hPa 2.0 mm
100%
14.0°
6
Windvlaag: 8.7 m/s
80%
16:00
18°
1008.5 hPa 1.8 mm
100%
15.6°
6
Windvlaag: 8.5 m/s
62% warningclass
17:00
18°
1008.5 hPa 1.9 mm
100%
14.8°
6
Windvlaag: 8.2 m/s
64% warningclass
18:00
18°
1008.4 hPa 1.7 mm
100%
12.9°
6
Windvlaag: 7.8 m/s
74% warningclass
19:00
18°
1008.3 hPa 1.8 mm
100%
12.5°
5
Windvlaag: 8.4 m/s
87%
20:00
18°
1008.4 hPa 1.7 mm
99%
12.9°
5
Windvlaag: 7.8 m/s
69%
21:00
17°
1008.4 hPa 1.5 mm
98%
12.3°
3
Windvlaag: 7.9 m/s
36%
22:00
16°
1008.3 hPa 1.4 mm
84%
12.2°
4
Windvlaag: 7.9 m/s
45%
23:00
16°
1008.1 hPa 2.1 mm
27%
12.5°
5
Windvlaag: 8.5 m/s
62%
 05:56     21:30    Daglengte: 15:34 Donderdag 29 Jul
00:00
16°
1007.9 hPa 2.4 mm
21%
12.3°
4
Windvlaag: 8.7 m/s
60%
01:00
16°
1007.8 hPa 2.3 mm
22%
12.3°
5
Windvlaag: 8.3 m/s
70%
02:00
15°
1007.3 hPa 2.3 mm
24%
11.4°
5
Windvlaag: 9.6 m/s
57%
03:00
15°
1006.9 hPa
25%
10.9°
5
Windvlaag: 10 m/s
61%
04:00
14°
1006.7 hPa
71%
11.5°
5
Windvlaag: 10.9 m/s
57%
05:00
14°
1006.7 hPa 2.1 mm
73%
11.7°
6
Windvlaag: 11.6 m/s
58%
06:00
14°
1006.8 hPa 2.2 mm
79%
11.8°
6
Windvlaag: 11.4 m/s
55%
07:00
14°
1006.9 hPa 2.4 mm
21%
11.7°
6
Windvlaag: 10.7 m/s
56%
08:00
15°
1007.1 hPa 2.2 mm
22%
11.3°
7
Windvlaag: 10.8 m/s
55%
09:00
16°
1008.8 hPa
31%
11.5°
6
Windvlaag: 13.6 m/s
17%
10:00
16°
1008.9 hPa
30%
11.2°
6
Windvlaag: 13.4 m/s
17%
11:00
17°
1009.2 hPa
24%
11.1°
6
Windvlaag: 13.4 m/s
19%
12:00
18°
1009.4 hPa
22%
10.3°
7
Windvlaag: 13.2 m/s
20%
13:00
19°
1009.5 hPa
21%
11.0°
6
Windvlaag: 12.4 m/s
20%
14:00
20°
1009.4 hPa
21%
12.3°
6
Windvlaag: 12.9 m/s
19%
Temp/Neerslag /Baro Onweer/Dauwpunt
    Temp Baro Neerslag Dauwpunt Wind Bewolking  
 05:52     21:35    Daglengte: 15:43 Vandaag
17:00
21°
1009.4 hPa 0.7 mm 14.2°
4
50%
20:00
19°
1009.2 hPa 0.6 mm 15.0°
3
53%
23:00
17°
1010.4 hPa 0.2 mm 16.3°
3
26%
 05:53     21:33    Daglengte: 15:40 Morgen
02:00
16°
1010.8 hPa   16.1°
3
62%
05:00
16°
1010.7 hPa   15.4°
3
63%
08:00
16°
1011.0 hPa   15.6°
3
82%
11:00
19°
1011.0 hPa   15.6°
4
72%
14:00
21°
1010.1 hPa   18.3°
4
54%
17:00
21°
1009.7 hPa 1.8 mm 15.6°
4
77% warningclass
20:00
18°
1009.4 hPa   16.3°
3
86%
23:00
17°
1009.7 hPa 1.8 mm 15.7°
3
66%
 05:55     21:32    Daglengte: 15:37 Woensdag 28 Jul
02:00
16°
1009.2 hPa   15.5°
3
64%
05:00
16°
1008.4 hPa   14.7°
3
51%
08:00
16°
1008.5 hPa   14.8°
4
25%
11:00
18°
1008.0 hPa 1.0 mm 11.9°
6
74%
14:00
19°
1007.9 hPa 3.3 mm 11.8°
6
60%
17:00
18°
1008.5 hPa 5.7 mm 14.8°
6
64% warningclass
20:00
18°
1008.4 hPa 5.2 mm 12.9°
5
69%
23:00
16°
1008.1 hPa 5.0 mm 12.5°
5
62%
 05:56     21:30    Daglengte: 15:34 Donderdag 29 Jul
02:00
15°
1007.3 hPa 7.0 mm 11.4°
5
57%
05:00
14°
1006.7 hPa 2.1 mm 11.7°
6
58%
08:00
15°
1007.1 hPa 6.8 mm 11.3°
7
55%
11:00
17°
1009.2 hPa   11.1°
6
19%
14:00
20°
1009.4 hPa   12.3°
6
19%
17:00
21°
1010.0 hPa 14.4 mm 11.7°
8
0%
20:00
18°
1010.1 hPa 14.6 mm 12.1°
7
0%
23:00
15°
1010.6 hPa 14.6 mm 10.1°
6
0%
 05:58     21:29    Daglengte: 15:31 Vrijdag 30 Jul
02:00
14°
1010.6 hPa 14.6 mm 10.0°
5
0%
05:00
12°
1010.5 hPa 14.6 mm 10.4°
4
0%
08:00
14°
1010.9 hPa 14.6 mm 11.5°
5
0%
11:00
19°
1010.8 hPa 14.6 mm 12.9°
5
1%
14:00
20°
1010.0 hPa 14.7 mm 12.3°
5
1%
17:00
21°
1009.3 hPa 14.7 mm 13.0°
3
1%
20:00
19°
1008.1 hPa 14.7 mm 13.9°
1
1%
23:00
17°
1007.6 hPa 15.0 mm 13.5°
1
1%
 05:59     21:27    Daglengte: 15:28 Zaterdag 31 Jul
02:00
15°
1007.0 hPa 16.5 mm 14.6°
2
1%
05:00
14°
1006.2 hPa 16.5 mm 13.3°
4
0%
08:00
15°
1006.1 hPa 16.5 mm 13.1°
4
0%
11:00
18°
1004.9 hPa 16.7 mm 12.3°
7
0%
14:00
16°
1003.9 hPa 20.0 mm 13.8°
8
0%
17:00
17°
1002.2 hPa 21.6 mm 14.5°
9
1%
20:00
16°
1005.0 hPa 22.7 mm 14.0°
6
1%
23:00
13°
1007.2 hPa 22.7 mm 12.1°
4
0%
 06:01     21:25    Daglengte: 15:24 Zondag 01 Aug
02:00
12°
1007.2 hPa 22.7 mm 11.5°
3
0%
05:00
12°
1006.8 hPa 22.7 mm 11.6°
2
1%
08:00
13°
1006.7 hPa 23.3 mm 12.8°
2
1%
11:00
14°
1006.7 hPa 24.1 mm 14.0°
3
1%
14:00
15°
1007.3 hPa 25.1 mm 14.1°
2
1%
17:00
16°
1008.1 hPa 28.2 mm 13.4°
4
1%
20:00
15°
1009.2 hPa 30.6 mm 12.5°
4
1%
23:00
11°
1011.4 hPa 30.7 mm 10.4°
3
1%
 06:02     21:24    Daglengte: 15:22 Maandag 02 Aug
02:00
10°
1012.7 hPa 30.7 mm 9.3°
3
0%
05:00
10°
Voelt als: 8.2°
1013.2 hPa 30.7 mm 8.9°
3
0%
08:00
12°
1014.2 hPa 30.7 mm 10.6°
3
0%
11:00
15°
1015.4 hPa 31.6 mm 12.0°
4
1%
14:00
19°
1015.1 hPa 63.4 mm 9.1°
4
1%
20:00
17°
1015.2 hPa 63.8 mm 11.5°
1
1%
 06:04     21:22    Daglengte: 15:18 Dinsdag 03 Aug
02:00
12°
1015.7 hPa 63.8 mm 9.3°
2
0%
08:00
14°
1015.4 hPa 63.8 mm 10.6°
3
1%
14:00
21°
1014.8 hPa 63.8 mm 11.3°
6
0%
20:00
19°
1014.0 hPa 64.0 mm 13.2°
3
1%
 06:06     21:20    Daglengte: 15:14 Woensdag 04 Aug
02:00
15°
1013.1 hPa 64.1 mm 11.4°
5
1%
08:00
16°
1011.2 hPa 64.1 mm 10.5°
5
1%
14:00
22°
1009.4 hPa 64.4 mm 14.6°
8
1%
20:00
18°
1008.7 hPa 68.5 mm 14.7°
5
1%
 06:07     21:18    Daglengte: 15:11 Donderdag 05 Aug
02:00
14°
1009.0 hPa 69.9 mm 12.5°
5
0%
08:00
14°
1008.1 hPa 69.9 mm 13.0°
5
1%
14:00
20°
1012.8 hPa 1.4 mm 13.6°
3
65%
20:00
18°
1012.3 hPa 1.6 mm 14.0°
2
63%
 06:09     21:17    Daglengte: 15:08 Vrijdag 06 Aug
02:00
14°
1012.4 hPa 0.5 mm 11.7°
2
63%
08:00
15°
1011.7 hPa 0.6 mm 12.5°
3
63%
14:00
20°
1012.1 hPa 1.4 mm 13.4°
4
61%
20:00
18°
1012.2 hPa 1.6 mm 13.7°
2
62%
 06:10     21:15    Daglengte: 15:05 Zaterdag 07 Aug
02:00
13°
1012.9 hPa 0.3 mm 11.8°
3
45%
08:00
14°
1012.6 hPa 0.3 mm 12.7°
3
52%
14:00
20°
1012.5 hPa 1.5 mm 13.7°
4
67%
20:00
18°
1012.4 hPa 1.8 mm 13.9°
2
65%
 06:12     21:13    Daglengte: 15:01 Zondag 08 Aug
02:00
14°
1012.8 hPa 0.6 mm 12.1°
2
58%
08:00
15°
1012.4 hPa 0.7 mm 12.9°
3
60%
14:00
20°
1013.0 hPa 1.4 mm 14.0°
4
65%
20:00
18°
1013.4 hPa 1.4 mm 13.8°
2
70%
 06:13     21:11    Daglengte: 14:58 Maandag 09 Aug
02:00
14°
1014.7 hPa 0.2 mm 11.7°
2
51%
08:00
14°
1015.2 hPa 0.3 mm 12.2°
3
43%
14:00
20°
1016.1 hPa 0.7 mm 13.2°
4
51%
20:00
19°
1016.0 hPa 0.9 mm 14.0°
2
55%
 06:15     21:09    Daglengte: 14:54 Dinsdag 10 Aug
02:00
14°
1016.9 hPa 0.1 mm 11.7°
2
46%
08:00
15°
1016.9 hPa 0.1 mm 12.6°
2
55%
14:00
21°
1017.2 hPa 0.9 mm 13.6°
3
63%
  CAPE Lifted Index Hail Supercell Tornado SRH 3km CL BTM PRES CL TOP PRES Swiss DWD icon SMHI TS
 05:52     21:35    Daglengte: 15:43 Vandaag
15:00 694 J/kg -2.4 K 0 % 0 % 0 % 0 m²/s² 0 0 -1.71 2
16:00 657 J/kg -2.5 K 0 % 0 % 0 % 0 m²/s² 0 0 -1.84 2
17:00 739 J/kg -2.7 K 0 % 0 % 0 % 0 m²/s² 0 0 -1.11 80
18:00 699 J/kg -2.5 K 0 % 0 % 0 % 0 m²/s² 0 0 -0.97 80
19:00 690 J/kg -2.7 K 0 % 0 % 0 % 0 m²/s² 0 0 -1.35 3
20:00 701 J/kg -2.8 K 0 % 0 % 0 % 0 m²/s² 0 0 -1.75 3
21:00 598 J/kg -2.3 K 0 % 0 % 0 % 0 m²/s² 0 0 -1.37 80
22:00 438 J/kg -2.2 K 0 % 0 % 0 % 0 m²/s² 0 0 -2.02 3
23:00 533 J/kg -2.0 K 0 % 0 % 0 % 0 m²/s² 0 0 -1.31 3
 05:53     21:33    Daglengte: 15:40 Morgen
00:00 337 J/kg -1.5 K 0 % 0 % 0 % 0 m²/s² 0 0 -0.09 3
01:00 231 J/kg -1.3 K 0 % 0 % 0 % 0 m²/s² 0 0 0.11 3
02:00 1 J/kg -0.4 K 0 % 0 % 0 % 0 m²/s² 0 0 0.53 3
03:00 0 J/kg 0.5 K 0 % 0 % 0 % 0 m²/s² 0 0 1.19 3
04:00 0 J/kg 1.7 K 0 % 0 % 0 % 0 m²/s² 0 0 3.32 3
05:00 0 J/kg 0.8 K 0 % 0 % 0 % 0 m²/s² 0 0 2.87 3
06:00 0 J/kg -0.4 K 0 % 0 % 0 % 0 m²/s² 0 0 1.85 3
07:00 0 J/kg -0.8 K 0 % 0 % 0 % 0 m²/s² 0 0 1.6 3
08:00 0 J/kg -1.0 K 0 % 0 % 0 % 0 m²/s² 0 0 1.25 3
09:00 270 J/kg -1.9 K 0 % 0 % 0 % 0 m²/s² 0 0 0.56 3
10:00 288 J/kg -2.0 K 0 % 0 % 0 % 0 m²/s² 0 0 0.94 3
11:00 198 J/kg -1.2 K 0 % 0 % 0 % 0 m²/s² 0 0 1.74 3
12:00 444 J/kg -2.2 K 0 % 0 % 0 % 0 m²/s² 0 0 0.26 3
13:00 748 J/kg -3.2 K 0 % 0 % 0 % 0 m²/s² 0 0 -1.76 3
14:00 808 J/kg -3.3 K 0 % 0 % 0 % 0 m²/s² 0 0 -1.74 3
15:00 754 J/kg -3.0 K 0 % 0 % 0 % 0 m²/s² 0 0 -1.71 3
16:00 833 J/kg -2.9 K 0 % 0 % 0 % 0 m²/s² 0 0 -1.97 80
17:00 976 J/kg -3.5 K 0 % 0 % 0 % 0 m²/s² 0 0 -3.08 80
18:00 0 J/kg -1.0 K 0 % 0 % 0 % 0 m²/s² 0 0 -0.43 80
19:00 89 J/kg 0.2 K 0 % 0 % 0 % 0 m²/s² 0 0 0.68 80
20:00 92 J/kg 0.4 K 0 % 0 % 0 % 0 m²/s² 0 0 0.73 80
21:00 26 J/kg 0.3 K 0 % 0 % 0 % 0 m²/s² 0 0 0.63 3
22:00 34 J/kg 0.5 K 0 % 0 % 0 % 0 m²/s² 0 0 0.77 80
23:00 65 J/kg -0.5 K 0 % 0 % 0 % 0 m²/s² 0 0 -0.32 3
 05:55     21:32    Daglengte: 15:37 Woensdag 28 Jul
00:00 7 J/kg 0.0 K 0 % 0 % 0 % 0 m²/s² 0 0 0.57 3
01:00 0 J/kg 0.8 K 0 % 0 % 0 % 0 m²/s² 0 0 1.4 3
02:00 66 J/kg 0.0 K 0 % 0 % 0 % 0 m²/s² 0 0 0.48 3
03:00 49 J/kg -0.5 K 0 % 0 % 0 % 0 m²/s² 0 0 0.07 3
04:00 29 J/kg 0.0 K 0 % 0 % 0 % 0 m²/s² 0 0 1.5 3
05:00 0 J/kg 0.6 K 0 % 0 % 0 % 0 m²/s² 0 0 2.46 3
06:00 0 J/kg 1.1 K 0 % 0 % 0 % 0 m²/s² 0 0 3.17 3
07:00 0 J/kg 1.3 K 0 % 0 % 0 % 0 m²/s² 0 0 3.16 3
08:00 3 J/kg 0.8 K 0 % 0 % 0 % 0 m²/s² 0 0 2.87 3
09:00 0 J/kg 1.8 K 0 % 0 % 0 % 0 m²/s² 0 0 4.35 3
10:00 0 J/kg 2.6 K 0 % 0 % 0 % 0 m²/s² 0 0 5.24 80
11:00 6 J/kg 2.8 K 0 % 0 % 0 % 0 m²/s² 0 0 5.83 80
12:00 41 J/kg 1.5 K 0 % 0 % 0 % 0 m²/s² 0 0 4.8 80
13:00 86 J/kg 0.7 K 0 % 0 % 0 % 0 m²/s² 0 0 4 80
14:00 154 J/kg 0.1 K 0 % 0 % 0 % 0 m²/s² 0 0 2.23 80
15:00 167 J/kg 0.0 K 0 % 0 % 0 % 0 m²/s² 0 0 2.19 3
16:00 254 J/kg -0.7 K 0 % 0 % 0 % 0 m²/s² 0 0 0.05 95
17:00 430 J/kg -1.3 K 0 % 0 % 0 % 0 m²/s² 0 0 0.2 95
18:00 571 J/kg -2.3 K 0 % 0 % 0 % 0 m²/s² 0 0 -0.32 95
19:00 499 J/kg -2.0 K 0 % 0 % 0 % 0 m²/s² 0 0 0.46 80
20:00 539 J/kg -2.1 K 0 % 0 % 0 % 0 m²/s² 0 0 1.32 80
21:00 382 J/kg -0.4 K 0 % 0 % 0 % 0 m²/s² 0 0 1.55 80
22:00 193 J/kg 1.4 K 0 % 0 % 0 % 0 m²/s² 0 0 6.02 80
23:00 177 J/kg 2.5 K 0 % 0 % 0 % 0 m²/s² 0 0 2.89 2
 05:56     21:30    Daglengte: 15:34 Donderdag 29 Jul
00:00 122 J/kg 3.4 K 0 % 0 % 0 % 0 m²/s² 0 0 3.88 2
01:00 82 J/kg 4.6 K 0 % 0 % 0 % 0 m²/s² 0 0 5.02 2
02:00 0 J/kg 7.2 K 0 % 0 % 0 % 0 m²/s² 0 0 10.02 2
03:00 0 J/kg 7.7 K 0 % 0 % 0 % 0 m²/s² 0 0 10.13 2
04:00 8 J/kg 6.7 K 0 % 0 % 0 % 0 m²/s² 0 0 9.73 2
05:00 38 J/kg 6.8 K 0 % 0 % 0 % 0 m²/s² 0 0 11.39 3
06:00 69 J/kg 7.2 K 0 % 0 % 0 % 0 m²/s² 0 0 12.15 3
07:00 90 J/kg 7.7 K 0 % 0 % 0 % 0 m²/s² 0 0 12.17 2
08:00 150 J/kg 7.6 K 0 % 0 % 0 % 0 m²/s² 0 0 11.29 2
09:00 197 J/kg 7.3 K 0 % 0 % 0 % 0 m²/s² 0 0 11.59 2
10:00 231 J/kg 6.7 K 0 % 0 % 0 % 0 m²/s² 0 0 9.76 2
11:00 222 J/kg 5.7 K 0 % 0 % 0 % 0 m²/s² 0 0 9.21 2
12:00 200 J/kg 5.0 K 0 % 0 % 0 % 0 m²/s² 0 0 7.52 2
13:00 183 J/kg 4.7 K 0 % 0 % 0 % 0 m²/s² 0 0 6.38 2
14:00 159 J/kg 3.3 K 0 % 0 % 0 % 0 m²/s² 0 0 6.72 2
Temp Baro Wind Neerslag
  EWN Forecast EWN WRFDA DWD ICON FMI HIRLAM MET Norway GFS
 05:52     21:35    Daglengte: 15:43 Vandaag
17:00 21.0° 1009.4 hPa 4.4 m/s 0.7 mm 23.1° 1008.8 hPa 4.0 m/s 0.2 mm 20.9° 1009.6 hPa 3.8 m/s -0.6 mm 22.3° 1008.8 hPa 4.8 m/s 0.0 mm 20.8° 1009.6 hPa 4.2 m/s
20:00 19.4° 1009.2 hPa 3.4 m/s 0.6 mm 22.3° 1008.4 hPa 3.8 m/s 0.2 mm 19.0° 1009.2 hPa 3.5 m/s 0.8 mm 20.6° 1008.8 hPa 2.0 m/s 0.0 mm 19.5° 1009.3 hPa 3.9 m/s
23:00 17.4° 1010.4 hPa 2.9 m/s 0.2 mm 18.2° 1010.2 hPa 2.1 m/s 0.5 mm 17.2° 1010.5 hPa 2.8 m/s 0.4 mm 18.2° 1009.6 hPa 2.6 m/s 0.0 mm 16.0° 1009.6 hPa 2.8 m/s
 05:53     21:33    Daglengte: 15:40 Morgen
02:00 16.4° 1010.8 hPa 3.2 m/s 0.0 mm 16.0° 1009.5 hPa 3.4 m/s 0.8 mm 16.6° 1011.1 hPa 3.3 m/s 0.0 mm 16.5° 1009.5 hPa 2.3 m/s 0.0 mm 14.8° 1011.0 hPa 2.9 m/s
05:00 15.7° 1010.7 hPa 2.6 m/s 0.0 mm 13.9° 1009.7 hPa 2.6 m/s 0.8 mm 15.9° 1011.2 hPa 2.6 m/s 0.0 mm 15.4° 1009.6 hPa 2.1 m/s 0.0 mm 13.7° 1010.5 hPa 2.6 m/s
08:00 16.3° 1011.0 hPa 2.9 m/s 0.0 mm 15.9° 1009.9 hPa 2.5 m/s 0.8 mm 16.6° 1011.7 hPa 3.6 m/s 0.0 mm 16.2° 1009.8 hPa 2.9 m/s 0.0 mm 15.8° 1010.9 hPa 3.3 m/s
11:00 19.3° 1011.0 hPa 3.8 m/s 0.0 mm 20.8° 1009.8 hPa 3.9 m/s 0.8 mm 19.4° 1011.4 hPa 4.1 m/s 0.0 mm 19.2° 1010.2 hPa 3.6 m/s 0.0 mm 19.3° 1010.7 hPa 4.3 m/s
14:00 21.2° 1010.1 hPa 4.2 m/s 0.0 mm 22.1° 1010.0 hPa 3.1 m/s 2.0 mm 22.6° 1010.7 hPa 4.7 m/s 0.0 mm 21.1° 1009.2 hPa 4.4 m/s 0.0 mm 21.4° 1010.4 hPa 4.7 m/s
17:00 20.8° 1009.7 hPa 3.6 m/s 1.8 mm 22.7° 1008.7 hPa 4.2 m/s 3.5 mm 20.3° 1010.4 hPa 3.7 m/s 0.6 mm 23.3° 1008.1 hPa 2.6 m/s 0.0 mm 20.1° 1010.0 hPa 3.2 m/s
20:00 18.4° 1009.4 hPa 3.4 m/s 0.0 mm 19.7° 1008.8 hPa 4.5 m/s 7.0 mm 17.9° 1010.2 hPa 2.9 m/s 2.1 mm 19.2° 1007.8 hPa 4.2 m/s 0.0 mm 19.4° 1009.5 hPa 2.7 m/s
23:00 17.4° 1009.7 hPa 3.0 m/s 1.8 mm 17.7° 1009.6 hPa 3.0 m/s 7.1 mm 17.4° 1010.1 hPa 3.0 m/s 1.2 mm 18.2° 1008.4 hPa 3.3 m/s 0.0 mm 16.7° 1009.8 hPa 3.7 m/s
 05:55     21:32    Daglengte: 15:37 Woensdag 28 Jul
02:00 16.2° 1009.2 hPa 3.1 m/s 0.0 mm 14.9° 1008.3 hPa 2.1 m/s 7.5 mm 16.7° 1009.1 hPa 3.0 m/s 0.0 mm 16.4° 1009.5 hPa 2.9 m/s 0.0 mm 15.9° 1009.6 hPa 4.1 m/s
05:00 15.5° 1008.4 hPa 3.3 m/s 0.0 mm 14.6° 1007.7 hPa 2.9 m/s 7.5 mm 16.1° 1008.3 hPa 2.8 m/s 0.1 mm 14.9° 1009.4 hPa 3.0 m/s 0.0 mm 14.4° 1009.0 hPa 4.4 m/s
08:00 15.8° 1008.5 hPa 4.1 m/s 0.0 mm 16.3° 1008.1 hPa 4.8 m/s 7.5 mm 16.3° 1007.5 hPa 3.8 m/s 0.0 mm 15.7° 1009.4 hPa 3.6 m/s 0.0 mm 15.2° 1009.3 hPa 5.4 m/s
11:00 17.8° 1008.0 hPa 6.1 m/s 1.0 mm 18.9° 1007.9 hPa 6.5 m/s 7.5 mm 17.0° 1007.9 hPa 5.2 m/s 0.5 mm 18.8° 1009.0 hPa 7.2 m/s
14:00 18.9° 1007.9 hPa 6.4 m/s 3.3 mm 21.3° 1007.7 hPa 6.4 m/s 7.5 mm 18.8° 1007.9 hPa 6.0 m/s 1.0 mm 19.2° 1009.3 hPa 7.2 m/s
17:00 18.5° 1008.5 hPa 5.6 m/s 5.7 mm 19.6° 1007.6 hPa 6.3 m/s 12.2 mm 18.0° 1008.8 hPa 5.5 m/s 3.3 mm 19.9° 1009.1 hPa 7.3 m/s
20:00 17.6° 1008.4 hPa 4.5 m/s 5.2 mm 20.2° 1007.3 hPa 4.5 m/s 16.1 mm 16.7° 1008.5 hPa 3.8 m/s 2.1 mm 17.9° 1008.6 hPa 4.5 m/s
23:00 16.1° 1008.1 hPa 4.6 m/s 5.0 mm 17.2° 1007.6 hPa 4.8 m/s 17.7 mm 15.8° 1008.1 hPa 3.3 m/s 0.6 mm 15.0° 1008.2 hPa 5.2 m/s
 05:56     21:30    Daglengte: 15:34 Donderdag 29 Jul
02:00 15.0° 1007.3 hPa 5.2 m/s 7.0 mm 15.1° 1006.7 hPa 4.3 m/s 17.9 mm 14.5° 1007.7 hPa 5.0 m/s 0.0 mm 15.1° 1007.4 hPa 7.0 m/s
05:00 14.0° 1006.7 hPa 5.9 m/s 2.1 mm 14.0° 1006.4 hPa 5.7 m/s 18.0 mm 14.3° 1007.8 hPa 5.0 m/s 0.0 mm 12.9° 1007.7 hPa 6.6 m/s
08:00 14.5° 1007.1 hPa 6.7 m/s 6.8 mm 15.0° 1006.4 hPa 7.4 m/s 18.0 mm 14.7° 1008.8 hPa 5.0 m/s 0.0 mm 13.7° 1007.7 hPa 7.9 m/s
11:00 17.5° 1009.2 hPa 6.4 m/s 0.0 mm 17.8° 1006.4 hPa 8.9 m/s 18.0 mm 17.4° 1009.9 hPa 5.8 m/s 0.0 mm 15.4° 1009.3 hPa 8.0 m/s
14:00 19.6° 1009.4 hPa 6.4 m/s 0.0 mm 18.7° 1006.7 hPa 7.7 m/s 19.0 mm 19.9° 1010.0 hPa 6.1 m/s 0.0 mm 19.8° 1010.0 hPa 8.2 m/s
17:00 20.7° 1010.0 hPa 7.6 m/s 14.4 mm 20.7° 1010.0 hPa 7.6 m/s 14.4 mm
20:00 18.0° 1010.1 hPa 6.5 m/s 14.6 mm 18.0° 1010.1 hPa 6.5 m/s 14.6 mm
23:00 15.3° 1010.6 hPa 5.7 m/s 14.6 mm 15.3° 1010.6 hPa 5.7 m/s 14.6 mm
 05:58     21:29    Daglengte: 15:31 Vrijdag 30 Jul
02:00 13.7° 1010.6 hPa 5.1 m/s 14.6 mm 13.7° 1010.6 hPa 5.1 m/s 14.6 mm
05:00 12.0° 1010.5 hPa 4.3 m/s 14.6 mm 12.0° 1010.5 hPa 4.3 m/s 14.6 mm
08:00 13.7° 1010.9 hPa 4.9 m/s 14.6 mm 13.7° 1010.9 hPa 4.9 m/s 14.6 mm
11:00 18.9° 1010.8 hPa 5.2 m/s 14.6 mm 18.9° 1010.8 hPa 5.2 m/s 14.6 mm
14:00 20.5° 1010.0 hPa 4.6 m/s 14.7 mm 20.5° 1010.0 hPa 4.6 m/s 14.7 mm
17:00 21.3° 1009.3 hPa 3.0 m/s 14.7 mm 21.3° 1009.3 hPa 3.0 m/s 14.7 mm
20:00 19.4° 1008.1 hPa 0.7 m/s 14.7 mm 19.5° 1008.1 hPa 0.7 m/s 14.7 mm
23:00 16.9° 1007.6 hPa 1.0 m/s 15.0 mm 16.9° 1007.6 hPa 1.0 m/s 15.0 mm
 05:59     21:27    Daglengte: 15:28 Zaterdag 31 Jul
02:00 15.3° 1007.0 hPa 1.9 m/s 16.5 mm 15.3° 1007.0 hPa 1.9 m/s 16.5 mm
05:00 13.6° 1006.2 hPa 3.5 m/s 16.5 mm 13.6° 1006.2 hPa 3.5 m/s 16.5 mm
08:00 14.6° 1006.1 hPa 3.6 m/s 16.5 mm 14.6° 1006.1 hPa 3.6 m/s 16.5 mm
11:00 18.5° 1004.9 hPa 7.3 m/s 16.7 mm 18.5° 1004.9 hPa 7.3 m/s 16.7 mm
14:00 16.5° 1003.9 hPa 8.1 m/s 20.0 mm 16.5° 1003.9 hPa 8.1 m/s 20.0 mm
17:00 17.0° 1002.2 hPa 9.1 m/s 21.6 mm 17.0° 1002.2 hPa 9.1 m/s 21.6 mm
20:00 16.0° 1005.0 hPa 5.8 m/s 22.7 mm 16.0° 1005.0 hPa 5.8 m/s 22.7 mm
23:00 12.9° 1007.2 hPa 3.7 m/s 22.7 mm 12.9° 1007.2 hPa 3.7 m/s 22.7 mm
 06:01     21:25    Daglengte: 15:24 Zondag 01 Aug
02:00 11.9° 1007.2 hPa 3.0 m/s 22.7 mm 11.9° 1007.2 hPa 3.0 m/s 22.7 mm
05:00 12.1° 1006.8 hPa 2.4 m/s 22.7 mm 12.1° 1006.8 hPa 2.4 m/s 22.7 mm
08:00 13.1° 1006.7 hPa 2.2 m/s 23.3 mm 13.1° 1006.7 hPa 2.2 m/s 23.3 mm
11:00 14.5° 1006.7 hPa 2.8 m/s 24.1 mm 14.5° 1006.7 hPa 2.8 m/s 24.1 mm
14:00 14.9° 1007.3 hPa 1.7 m/s 25.1 mm 14.9° 1007.3 hPa 1.7 m/s 25.1 mm
17:00 15.6° 1008.1 hPa 4.2 m/s 28.2 mm 15.6° 1008.1 hPa 4.2 m/s 28.2 mm
20:00 14.9° 1009.2 hPa 3.5 m/s 30.6 mm 14.9° 1009.2 hPa 3.5 m/s 30.6 mm
23:00 11.5° 1011.4 hPa 2.9 m/s 30.7 mm 11.5° 1011.4 hPa 2.9 m/s 30.7 mm
 06:02     21:24    Daglengte: 15:22 Maandag 02 Aug
02:00 10.2° 1012.7 hPa 3.1 m/s 30.7 mm 10.2° 1012.7 hPa 3.1 m/s 30.7 mm
05:00 9.7° 1013.2 hPa 3.0 m/s 30.7 mm 9.7° 1013.2 hPa 3.0 m/s 30.7 mm
08:00 12.1° 1014.2 hPa 3.3 m/s 30.7 mm 12.1° 1014.2 hPa 3.3 m/s 30.7 mm
11:00 14.6° 1015.4 hPa 4.0 m/s 31.6 mm 14.6° 1015.4 hPa 4.0 m/s 31.6 mm
14:00 18.9° 1015.1 hPa 4.3 m/s 31.9 mm 18.9° 1015.1 hPa 4.3 m/s 31.9 mm
20:00 17.1° 1015.2 hPa 1.4 m/s 31.9 mm 17.1° 1015.2 hPa 1.4 m/s 31.9 mm
 06:04     21:22    Daglengte: 15:18 Dinsdag 03 Aug
02:00 11.7° 1015.7 hPa 1.9 m/s 31.9 mm 11.7° 1015.7 hPa 1.9 m/s 31.9 mm
08:00 13.6° 1015.4 hPa 3.0 m/s 31.9 mm 13.6° 1015.4 hPa 3.0 m/s 31.9 mm
14:00 21.2° 1014.8 hPa 5.9 m/s 31.9 mm 21.2° 1014.8 hPa 5.9 m/s 31.9 mm
20:00 18.7° 1014.0 hPa 3.3 m/s 32.0 mm 18.7° 1014.0 hPa 3.3 m/s 32.0 mm
 06:06     21:20    Daglengte: 15:14 Woensdag 04 Aug
02:00 14.8° 1013.1 hPa 4.5 m/s 32.0 mm 14.8° 1013.1 hPa 4.5 m/s 32.0 mm
08:00 15.9° 1011.2 hPa 5.3 m/s 32.1 mm 15.9° 1011.2 hPa 5.3 m/s 32.1 mm
14:00 21.6° 1009.4 hPa 8.0 m/s 32.3 mm 21.6° 1009.4 hPa 8.0 m/s 32.3 mm
20:00 17.8° 1008.7 hPa 5.2 m/s 34.9 mm 17.8° 1008.7 hPa 5.2 m/s 34.9 mm
 06:07     21:18    Daglengte: 15:11 Donderdag 05 Aug
02:00 13.9° 1009.0 hPa 4.9 m/s 35.0 mm 13.9° 1009.0 hPa 4.9 m/s 35.0 mm
08:00 14.1° 1008.1 hPa 4.8 m/s 35.0 mm 14.1° 1008.1 hPa 4.8 m/s 35.0 mm
14:00 19.6° 1012.8 hPa 3.0 m/s 1.4 mm
20:00 18.0° 1012.3 hPa 1.5 m/s 1.6 mm
 06:09     21:17    Daglengte: 15:08 Vrijdag 06 Aug
02:00 13.8° 1012.4 hPa 2.1 m/s 0.5 mm
08:00 14.5° 1011.7 hPa 3.1 m/s 0.6 mm
14:00 20.1° 1012.1 hPa 4.0 m/s 1.4 mm
20:00 17.7° 1012.2 hPa 2.5 m/s 1.6 mm
 06:10     21:15    Daglengte: 15:05 Zaterdag 07 Aug
02:00 13.4° 1012.9 hPa 2.5 m/s 0.3 mm
08:00 14.3° 1012.6 hPa 3.0 m/s 0.3 mm
14:00 20.1° 1012.5 hPa 3.9 m/s 1.5 mm
20:00 17.9° 1012.4 hPa 2.1 m/s 1.8 mm
 06:12     21:13    Daglengte: 15:01 Zondag 08 Aug
02:00 13.9° 1012.8 hPa 1.8 m/s 0.6 mm
08:00 14.7° 1012.4 hPa 2.9 m/s 0.7 mm
14:00 20.0° 1013.0 hPa 3.8 m/s 1.4 mm
20:00 18.1° 1013.4 hPa 2.1 m/s 1.4 mm
 06:13     21:11    Daglengte: 14:58 Maandag 09 Aug
02:00 13.5° 1014.7 hPa 1.9 m/s 0.2 mm
08:00 14.2° 1015.2 hPa 2.7 m/s 0.3 mm
14:00 20.1° 1016.1 hPa 3.6 m/s 0.7 mm
20:00 18.6° 1016.0 hPa 1.9 m/s 0.9 mm
 06:15     21:09    Daglengte: 14:54 Dinsdag 10 Aug
02:00 13.8° 1016.9 hPa 1.8 m/s 0.1 mm
08:00 14.7° 1016.9 hPa 2.3 m/s 0.1 mm
14:00 20.8° 1017.2 hPa 3.0 m/s 0.9 mm
FMI Hirlam - 7.5 km EWN WRFDA - 12 km DWD ICON - 7 km GFS - 25 km Basiskaart